Diyarbakir, Turkey

5:16 PM EEST on August 29, 2016 (GMT +0300)
Diyarbakir

Weather History for LTCC - September, 2013

Change the Weather History Date:

Monday, September 16, 2013

  Actual Average Record
Temperature  
Mean Temperature 76 °F -  
Max Temperature 91 °F 84 °F 97 °F (2015)
Min Temperature 60 °F 56 °F 51 °F (1997)
Cooling Degree Days 10    
Growing Degree Days 26 (Base 50)    
Moisture  
Dew Point 37 °F    
Average Humidity 25    
Maximum Humidity 52    
Minimum Humidity 6    
Precipitation  
Precipitation 0.00 in 0.03 in - ()
Sea Level Pressure  
Sea Level Pressure 29.73 in    
Wind  
Wind Speed 5 mph ()    
Max Wind Speed 12 mph    
Max Gust Speed -    
Visibility 12.0 miles    
Events      
Averages and records for this station are not official NWS values.
T = Trace of Precipitation, MM = Missing Value Source: Averaged Metar Reports

Daily Weather History Graph

Daily Weather History Graph

Search for Another Location

Airport or City:

Trip Planner

Search our weather history database for the weather conditions in past years. The results will help you decide how hot, cold, wet, or windy it might be!

Date:

Astronomy

Sep. 16, 2013 Rise Set
Actual Time 6:01 AM EEST 6:25 PM EEST
Civil Twilight 5:35 AM EEST 6:52 PM EEST
Nautical Twilight 5:04 AM EEST 7:22 PM EEST
Astronomical Twilight 4:32 AM EEST 7:54 PM EEST
Moon 4:17 PM EEST (9/16) 2:26 AM EEST (9/16)
Length of Visible Light 13h 16m
Length of Day
12h 23m
Waxing Gibbous, 88% of the Moon is Illuminated
Sep 16
Waxing Gibbous
Sep 19
Full
Sep 27
Last Quarter
Oct 5
New
Oct 12
First Quarter

Hourly Weather History & Observations

Time (EEST) Temp. Dew Point Humidity Pressure Visibility Wind Dir Wind Speed Gust Speed Precip Events Conditions
12:20 AM 73.4 °F 41.0 °F 31% 29.74 in - Variable 3.5 mph - N/A   Clear
12:50 AM 77.0 °F 44.6 °F 32% 29.74 in - West 8.1 mph - N/A   Clear
1:20 AM 75.2 °F 44.6 °F 34% 29.74 in - WNW 6.9 mph - N/A   Clear
1:50 AM 71.6 °F 44.6 °F 38% 29.74 in - Calm Calm - N/A   Clear
2:20 AM 71.6 °F 42.8 °F 35% 29.74 in - SSE 5.8 mph - N/A   Clear
2:50 AM 66.2 °F 44.6 °F 46% 29.71 in - SE 4.6 mph - N/A   Clear
3:00 AM 66 °F 44 °F 33% 29.59 in 12 mi SE 4.6 mph - -  
3:20 AM 66.2 °F 46.4 °F 49% 29.71 in - ENE 4.6 mph - N/A   Clear
3:50 AM 66.2 °F 44.6 °F 46% 29.71 in - Variable 2.3 mph - N/A   Clear
4:20 AM 64.4 °F 44.6 °F 49% 29.74 in - SSE 3.5 mph - N/A   Clear
4:50 AM 64.4 °F 44.6 °F 49% 29.74 in - Variable 1.2 mph - N/A   Clear
5:20 AM 62.6 °F 44.6 °F 52% 29.74 in - WSW 3.5 mph - N/A   Clear
5:50 AM 62.6 °F 44.6 °F 52% 29.74 in - SW 4.6 mph - N/A   Clear
6:20 AM 60.8 °F 42.8 °F 52% 29.74 in - WNW 6.9 mph - N/A   Clear
6:50 AM 64.4 °F 42.8 °F 45% 29.74 in - WNW 5.8 mph - N/A   Clear
7:20 AM 71.6 °F 42.8 °F 35% 29.74 in - NNW 4.6 mph - N/A   Clear
7:50 AM 71.6 °F 46.4 °F 41% 29.77 in - East 3.5 mph - N/A   Clear
8:20 AM 73.4 °F 46.4 °F 38% 29.77 in - ESE 4.6 mph - N/A   Clear
8:50 AM 77.0 °F 46.4 °F 34% 29.77 in - ENE 5.8 mph - N/A   Clear
9:00 AM 76 °F 45 °F 22% 29.64 in 12 mi ENE 5.8 mph - -  
9:20 AM 80.6 °F 39.2 °F 23% 29.77 in - NNW 10.4 mph - N/A   Clear
9:50 AM 82.4 °F 39.2 °F 21% 29.77 in - North 10.4 mph - N/A   Clear
10:20 AM 84.2 °F 39.2 °F 20% 29.77 in - North 11.5 mph - N/A   Clear
10:50 AM 84.2 °F 41.0 °F 22% 29.77 in - North 9.2 mph - N/A   Clear
11:20 AM 86.0 °F 41.0 °F 20% 29.74 in - NNW 8.1 mph - N/A   Clear
11:50 AM 86.0 °F 39.2 °F 19% 29.74 in - North 8.1 mph - N/A   Clear
12:20 PM 87.8 °F 39.2 °F 18% 29.74 in - NNW 9.2 mph - N/A   Clear
12:50 PM 87.8 °F 37.4 °F 17% 29.74 in - Variable 6.9 mph - N/A   Clear
1:20 PM 89.6 °F 37.4 °F 16% 29.74 in - SE 6.9 mph - N/A   Clear
1:50 PM 89.6 °F 39.2 °F 17% 29.71 in - Variable 4.6 mph - N/A   Clear
2:20 PM 91.4 °F 33.8 °F 13% 29.71 in - Variable 5.8 mph - N/A   Clear
2:50 PM 89.6 °F 32.0 °F 13% 29.71 in - Variable 6.9 mph - N/A   Clear
3:00 PM 90 °F 31 °F 6% 29.59 in 12 mi NW 6.9 mph - -   Scattered Clouds
3:20 PM 91.4 °F 32.0 °F 12% 29.71 in - WNW 5.8 mph - N/A   Clear
3:50 PM 89.6 °F 32.0 °F 13% 29.71 in - West 9.2 mph - N/A   Clear
4:20 PM 89.6 °F 30.2 °F 12% 29.71 in - WNW 9.2 mph - N/A   Clear
4:50 PM 89.6 °F 28.4 °F 11% 29.71 in - WNW 8.1 mph - N/A   Clear
5:20 PM 89.6 °F 28.4 °F 11% 29.71 in - NW 5.8 mph - N/A   Clear
5:50 PM 87.8 °F 28.4 °F 12% 29.71 in - NNW 3.5 mph - N/A   Clear
6:20 PM 84.2 °F 26.6 °F 12% 29.71 in - NNW 4.6 mph - N/A   Clear
6:50 PM 82.4 °F 26.6 °F 13% 29.71 in - Calm Calm - N/A   Clear
7:20 PM 78.8 °F 28.4 °F 16% 29.71 in - West 4.6 mph - N/A   Clear
7:50 PM 78.8 °F 28.4 °F 16% 29.74 in - West 6.9 mph - N/A   Clear
8:20 PM 77.0 °F 30.2 °F 18% 29.74 in - West 9.2 mph - N/A   Clear
8:50 PM 78.8 °F 28.4 °F 16% 29.74 in - West 11.5 mph - N/A   Clear
9:20 PM 78.8 °F 23.0 °F 13% 29.74 in - West 10.4 mph - N/A   Clear
9:50 PM 73.4 °F 23.0 °F 15% 29.74 in - WNW 3.5 mph - N/A   Clear
10:20 PM 77.0 °F 26.6 °F 16% 29.74 in - NNW 6.9 mph - N/A   Clear
10:50 PM 73.4 °F 26.6 °F 18% 29.74 in - NW 6.9 mph - N/A   Clear
11:20 PM 73.4 °F 26.6 °F 18% 29.74 in - WSW 4.6 mph - N/A   Clear
11:50 PM 69.8 °F 26.6 °F 20% 29.74 in - Variable 1.2 mph - N/A   Clear